Белые Воды

Казахстан     42˚25′01″N   69˚49′58″E
темп.,
°C
ветер,
м/с
пор.,
м/с
влажн.,
%
обл.,
%
осадки,
мм/ч
давл.,
гПа
погр.,
м
6 декабря, вс
вс623:00−7˚вюв22799 0.0 103421
02:00−7˚вюв22730 0.0 103421
05:00−7˚вюв12660 0.0 103421
08:00−7˚вюв226217 0.0 103522
11:00−1˚юв125356 0.0 1034198
14:00+1˚ссз115444 0.0 1032342
17:00−4˚зсз128541 0.0 103321
20:00−5˚ююв018320 0.0 103221
7 декабря, пн
пн723:00−6˚св017519 0.0 103121
02:00−6˚сз118077 0.0 103121
05:00−6˚зсз128188 0.0 103022
08:00−8˚зсз129397 0.0 103131
11:00−5˚юз117750 0.0 1031228
14:00−4˚зсз32720 0.0 1030384
17:00−7˚сз118521 0.0 103221
20:00−7˚ссз008726 0.0 103421
8 декабря, вт
вт823:00−8˚всв019140 0.0 103421
02:00−7˚в009331 0.0 103421
05:00−8˚св019215 0.0 103421
08:00−8˚вюв11900 0.0 103521
11:00−3˚зсз107613 0.0 1034215
14:00−2˚зсз217510 0.0 1033301
17:00−6˚сз12925 0.0 103521
20:00−7˚ю00920 0.0 103621
9 декабря, ср
ср923:00−7˚в119231 0.0 103721
02:00−7˚всв119069 0.0 103721
05:00−7˚в128844 0.0 103721
08:00−7˚в23840 0.0 103825
11:00−2˚всв22640 0.0 1037229
14:00ссз22600 0.0 1036307
17:00−4˚с11760 0.0 103521
20:00−5˚в22700 0.0 103525
10 декабря, чт
чт1023:00−5˚в22580 0.0 103424
02:00−6˚вюв22540 0.0 103321
05:00−6˚в22500 0.0 103321
08:00−6˚вюв22480 0.0 103421
11:00в12370 0.0 1034152
14:00+2˚ссз11370 0.0 1033261
17:00−2˚всв11587 0.0 103321
20:00−3˚в22470 0.0 103325